AirNav   Air Wisconsin pilot careers
 
 660 users online  

03XA Del Sol Medical Center Heliport
El Paso, Texas, USA


FAA INFORMATION EFFECTIVE 09 NOVEMBER 2017

Location

FAA Identifier: 03XA
Lat/Long: 31-45-26.7000N / 106-20-49.1000W
31-45.445000N / 106-20.818333W
31.7574167 / -106.3469722
(estimated)
Elevation: 3881 ft. / 1183 m (estimated)
Time zone: UTC -6 (UTC -5 during Daylight Saving Time)
Zip code: 79935

Heliport Operations

Heliport use: Private use. Permission required prior to landing
Activation date: 08/2012
Control tower: no
ARTCC: ALBUQUERQUE CENTER
FSS: ALBUQUERQUE FLIGHT SERVICE STATION
Attendance: UNATNDD
Segmented circle: no

Heliport Communications

WX ASOS at ELP (3 nm NW): PHONE 915-774-9497
WX AWOS-3PT at DNA (20 nm W): 124.175 (575-589-2643)

Nearby radio navigation aids

VOR radial/distance  VOR name  Freq  Var
ELPr211/4.8EL PASO VORTAC115.2012E
CJSr018/8.3CIUDAD JUAREZ VOR/DME116.7011E
EWMr186/12.3NEWMAN VORTAC112.4012E

 
NDB name  Hdg/Dist  Freq  Var  ID
VALTR186/6.424208EEL . .-..

Heliport Services

Runway Information

Helipad H1

Dimensions: 54 x 54 ft. / 16 x 16 m
Surface: concrete
Latitude: 31-45.445000N
Longitude: 106-20.818333W
Elevation: 3881.0 ft.
Traffic pattern: leftleft

Heliport Ownership and Management from official FAA records

Ownership: Privately-owned
Owner: DEL SOL MEDICAL CENTER
10301 GATEWAY WEST BLVD
EL PASO, TX 79925
Phone (915) 594-5928
Manager: DEL SOL MEDICAL CENTER
10301 GATEWAY WEST BLVD
EL PASO, TX 79925
Phone (915) 594-5928

Instrument Procedures

There are no published instrument procedures at 03XA.

Some nearby airports with instrument procedures:

KELP - El Paso International Airport (3 nm NW)
KBIF - Biggs Army Airfield (Fort Bliss) (6 nm N)
KDNA - Dona Ana County International Jetport Airport (20 nm W)
KLRU - Las Cruces International Airport (43 nm NW)
KHMN - Holloman Air Force Base (67 nm N)
 
Loc | Ops | Rwys | IFR | FBO | Links
Com | Nav | Svcs | Stats | Notes


 
Aerial photo
No photo
 
Airport distance calculator
Flying to Del Sol Medical Center Heliport? Find the distance to fly.

From to 03XA

Sunrise and sunset
Times for 23-Nov-2017
 Local
(UTC-6)
 Zulu
(UTC)
Morning civil twilight07:1613:16
Sunrise07:4213:42
Sunset18:0200:02
Evening civil twilight18:2800:28

Current date and time
Zulu (UTC)  24-Nov-2017 02:44:19
Local (UTC-6)  23-Nov-2017 20:44:19
 
METAR
KELP 
4nm NW 
240151Z 18005KT 10SM FEW250 16/M02 A3014 RMK AO2 SLP172 T01611022 $
KBIF 
6nm N 
240158Z 14004KT 9SM CLR 15/M02 A3013 RMK AO2A SLP180 T01511025 $
MMCS 
9nm SW 
240145Z 24005KT 10SM SCT250 17/M03 A3016 RMK 8/008
KDNA 
20nm W 
240235Z AUTO 22006KT 10SM CLR 15/M04 A3017 RMK AO2 PWINO
TAF
KELP 
4nm NW 
231730Z 2318/2418 VRB03KT P6SM FEW250 FM240100 17004KT P6SM FEW250 FM241000 28005KT P6SM FEW250
KBIF 
6nm N 
232206Z 2322/2504 VRB06KT 9999 FEW250 QNH2997INS TX23/2322Z TN08/2412Z
MMCS 
9nm SW 
231712Z 2318/2418 12010KT P6SM SKC FM240400 16005KT 6SM HZ SKC FM241800 24010KT P6SM SKC
NOTAMs
Click for the latest NOTAMs
NOTAMs are issued by the DoD/FAA and will open in a separate window not controlled by AirNav.

 

 
 

Would you like to see your business listed on this page?

 If your business provides an interesting product or service to pilots, flight crews, aircraft, or users of the Del Sol Medical Center Heliport, you should consider listing it here.  To start the listing process, click on the button below
 
Add a business
 

Other Pages about Del Sol Medical Center Heliport

Update a link
 
Copyright © AirNav, LLC. All rights reserved. Privacy Policy  Contact